Regional Weather Roundup
Issued by NWS

Current Version | Previous Version | Text Only | Print | Product List | Glossary On
Versions: 1 2 3 4 5 6 7 8 9 10 11 12 13 14 15 16 17 18 19 20 21 22 23 24 25 26 27 28 29 30 31 32 33 34 35 36 37 38 39 40 41 42 43 44 45 46 47 48 49 50
000
ASPQ40 PGUM 021914
RWRPQ
WEATHER ROUNDUP FOR THE MARIANAS AND MICRONESIA
NATIONAL WEATHER SERVICE TIYAN GU
500 AM CHST MON AUG 03 2015

GUZ001>004-022000-
MARIANA ISLANDS-

CITY           SKY/WX    TMP DP  RH WIND       PRES   REMARKS
GUAM AIRPORT   PTCLDY    81  77  89 W16G23    29.55F
ANDERSEN AFB   PTCLDY    79  75  89 W20G28    29.54F
ROTA AIRPORT   NOT AVBL
TINIAN AP      NOT AVBL
SAIPAN AP      NOT AVBL

$$

PMZ161-022000-
REPUBLIC OF PALAU-

CITY           SKY/WX    TMP DP  RH WIND       PRES   REMARKS
KOROR AP       CLOUDY    79  75  89 SW7       29.75F
KOROR WSO      LGT RAIN  81  75  83 W10       29.77F

$$

PMZ171>174-022000-
FEDERATED STATES OF MICRONESIA-

CITY           SKY/WX    TMP DP  RH WIND       PRES   REMARKS
YAP AIRPORT    MOCLDY    82  75  78 VRB6      29.71S
CHUUK AP       CLOUDY    79  77  94 S9        29.74F
POHNPEI AP     CLOUDY    77  75  94 S5        29.81
POHNPEI WSO    MOCLDY    75  73  94 SE3       29.83R
KOSRAE AP      NOT AVBL

$$

PMZ181-022000-
REPUBLIC OF THE MARSHALL ISLANDS-

CITY           SKY/WX    TMP DP  RH WIND       PRES   REMARKS
KWAJALEIN AP   PTCLDY    81  75  83 NE9       29.79S
MAJURO AP      NOT AVBL
MAJURO WSO     MOCLDY    82  77  83 NE7       29.75R HX  91

$$



USA.gov is the U.S. government's official web portal to all federal, state and local government web resources and services.